{"data":{"norad_id":46507,"epoch":"2026-09-20T00:00:22.292928Z","epoch_age_seconds":57535,"freshness":"FRESH","line1":"1 46507U 20068X   26263.00025802  .00015378  00000+0  27945-3 0  9997","line2":"2 46507  97.8616 279.3849 0004236  40.3317 319.8246 15.49647348330400","mean_motion":15.49647348,"eccentricity":0.0004236,"inclination_deg":97.8616,"raan_deg":279.3849,"arg_perigee_deg":40.3317,"mean_anomaly_deg":319.8246,"bstar":0.00027945,"rev_number":33040,"period_min":92.92436771879,"perigee_km":414.87815714747,"apogee_km":420.63563845769,"semimajor_km":6795.8938978026,"source":"CELESTRAK","updated_at":"2026-09-20T09:00:48.034997Z"}}